EW7469 Weather Reports


Display with metric or nautical units.
time (UTC)temp
F
wind
direction
speed
MPH
gust
MPH
rain 1hr
in
rain 24hr
in
rain mn
in
humidity
%
barometer
mb
20260902165059 84 32 1.0 4.0 0.00 0.01 0.01 83 1015.1
20260902164533 84 63 1.0 4.0 0.00 0.01 0.01 82 1015.4
20260902164027 84 113 1.0 4.0 0.00 0.01 0.01 82 1015.4
20260902163523 84 61 2.0 4.0 0.00 0.01 0.01 83 1015.4
20260902163031 84 108 1.0 3.0 0.00 0.01 0.01 83 1015.5
20260902162526 84 84 1.0 3.0 0.00 0.01 0.01 83 1015.5
20260902162022 84 136 0.0 2.0 0.00 0.01 0.01 84 1015.5
20260902161538 84 136 0.0 3.0 0.00 0.01 0.01 84 1015.6
20260902161032 84 85 1.0 3.0 0.00 0.01 0.01 85 1015.6
20260902160548 83 68 0.0 2.0 0.00 0.01 0.01 85 1015.6
20260902160024 83 65 1.0 2.0 0.00 0.01 0.01 85 1015.9
20260902155532 83 66 1.0 2.0 0.00 0.01 0.01 85 1015.9
20260902155028 83 81 1.0 2.0 0.00 0.01 0.01 87 1015.9
20260902154537 83 103 0.0 2.0 0.00 0.01 0.01 87 1015.9
20260902154032 83 103 0.0 2.0 0.00 0.01 0.01 87 1015.9
20260902153548 83 60 2.0 2.0 0.00 0.01 0.01 86 1015.9
20260902153035 82 75 0.0 2.0 0.00 0.01 0.01 86 1015.6
20260902152532 82 11 0.0 2.0 0.00 0.01 0.01 86 1015.6
20260902152029 82 11 1.0 2.0 0.00 0.01 0.01 84 1015.6
20260902151536 82 13 1.0 2.0 0.00 0.01 0.01 86 1015.5
20260902151032 82 352 0.0 3.0 0.00 0.01 0.01 85 1015.5
20260902150529 82 359 0.0 3.0 0.00 0.01 0.01 86 1015.5
20260902150025 82 347 1.0 3.0 0.00 0.01 0.01 90 1015.7
20260902145523 82 342 1.0 3.0 0.00 0.01 0.01 94 1015.7
20260902145040 82 340 0.0 4.0 0.00 0.01 0.01 95 1015.7
20260902144533 82 340 1.0 4.0 0.00 0.01 0.01 96 1015.6
20260902144028 82 323 1.0 4.0 0.00 0.01 0.01 98 1015.6
20260902143525 82 210 1.0 2.0 0.00 0.01 0.01 100 1015.6
20260902143037 81 204 0.0 3.0 0.01 0.01 0.01 100 1015.5
20260902142553 81 203 1.0 3.0 0.01 0.01 0.01 100 1015.5
20260902142029 81 155 0.0 4.0 0.01 0.01 0.01 100 1015.5
20260902141533 81 155 3.0 4.0 0.01 0.01 0.01 100 1015.6
20260902141029 80 293 1.0 2.0 0.01 0.01 0.01 100 1015.6
20260902140524 80 293 0.0 2.0 0.01 0.01 0.01 100 1015.6
20260902140053 80 293 0.0 3.0 0.01 0.01 0.01 100 1015.4
20260902135527 80 293 1.0 3.0 0.01 0.01 0.01 100 1015.4
20260902135026 80 293 1.0 2.0 0.01 0.01 0.01 100 1015.4
20260902134523 80 293 0.0 2.0 0.01 0.01 0.01 100 1015.3
20260902134052 80 293 1.0 4.0 0.01 0.01 0.01 100 1015.3
20260902133547 80 293 2.0 4.0 0.01 0.01 0.01 100 1015.3
20260902133036 79 303 1.0 3.0 0.00 0.00 0.00 100 1015.4
20260902132530 79 328 0.0 3.0 0.00 0.00 0.00 100 1015.4
20260902132026 79 328 0.0 3.0 0.00 0.00 0.00 100 1015.4
20260902131522 79 328 1.0 3.0 0.00 0.00 0.00 100 1015.3
20260902131040 79 328 1.0 3.0 0.00 0.00 0.00 100 1015.3
20260902130533 79 328 0.0 3.0 0.00 0.00 0.00 100 1015.3
20260902130028 78 332 1.0 3.0 0.00 0.00 0.00 100 1015.3
20260902125523 78 328 0.0 3.0 0.00 0.00 0.00 100 1015.3
20260902125038 78 328 1.0 3.0 0.00 0.00 0.00 100 1015.3
20260902124533 78 328 2.0 4.0 0.00 0.00 0.00 100 1015.3
20260902124028 78 321 1.0 5.0 0.00 0.00 0.00 100 1015.3
20260902123537 78 304 2.0 5.0 0.00 0.00 0.00 100 1015.3
20260902123033 77 302 2.0 4.0 0.00 0.00 0.00 100 1014.9
20260902122529 77 326 0.0 2.0 0.00 0.01 0.00 100 1014.9
20260902122025 77 326 1.0 2.0 0.00 0.01 0.00 100 1014.9
20260902121539 77 326 0.0 3.0 0.00 0.01 0.00 100 1014.9
20260902121031 77 326 1.0 3.0 0.00 0.01 0.00 100 1014.9
20260902120528 77 325 0.0 2.0 0.00 0.01 0.00 100 1014.9
20260902120036 77 325 1.0 2.0 0.00 0.01 0.00 100 1014.8
20260902115550 76 325 0.0 1.0 0.00 0.01 0.00 100 1014.8
20260902115025 76 325 0.0 1.0 0.00 0.01 0.00 100 1014.8
20260902114530 76 325 0.0 1.0 0.00 0.01 0.00 100 1014.8
20260902114026 76 325 0.0 0.0 0.00 0.01 0.00 100 1014.8
20260902113522 76 325 0.0 0.0 0.00 0.01 0.00 100 1014.8
20260902113039 76 325 0.0 0.0 0.00 0.01 0.00 100 1014.6
20260902112533 76 325 0.0 0.0 0.00 0.01 0.00 100 1014.6
20260902112029 76 325 0.0 0.0 0.00 0.01 0.00 100 1014.6
20260902111526 76 325 0.0 0.0 0.00 0.01 0.00 100 1014.4
20260902111022 76 325 0.0 0.0 0.00 0.01 0.00 100 1014.4
20260902110538 76 325 0.0 0.0 0.00 0.01 0.00 100 1014.4
20260902110032 76 325 0.0 0.0 0.00 0.01 0.00 100 1014.5
20260902105525 76 325 0.0 0.0 0.00 0.01 0.00 100 1014.5
20260902105041 76 325 0.0 0.0 0.00 0.01 0.00 100 1014.5
20260902104529 76 325 0.0 0.0 0.00 0.01 0.00 100 1014.3
20260902104047 76 325 0.0 1.0 0.00 0.01 0.00 100 1014.3
20260902103555 76 325 0.0 1.0 0.00 0.01 0.00 100 1014.3
20260902103031 76 325 0.0 1.0 0.00 0.01 0.00 100 1014.2
20260902102527 77 325 0.0 2.0 0.00 0.01 0.00 100 1014.2
20260902102035 77 325 0.0 2.0 0.00 0.01 0.00 100 1014.2
20260902101531 77 324 0.0 0.0 0.00 0.01 0.00 100 1014.2
20260902101028 77 324 0.0 0.0 0.00 0.01 0.00 100 1014.2
20260902100537 77 324 0.0 0.0 0.00 0.01 0.00 100 1014.2
20260902100033 77 324 0.0 0.0 0.00 0.01 0.00 100 1014.1
20260902095529 77 324 0.0 0.0 0.00 0.01 0.00 100 1014.1
20260902095057 77 324 0.0 0.0 0.00 0.01 0.00 100 1014.1
20260902094532 77 324 0.0 0.0 0.00 0.01 0.00 100 1014.2
20260902094026 77 324 0.0 0.0 0.00 0.01 0.00 100 1014.2
20260902093551 77 324 0.0 0.0 0.00 0.01 0.00 100 1014.2
20260902093025 77 324 0.0 0.0 0.00 0.01 0.00 100 1014.2
20260902092541 77 324 0.0 0.0 0.00 0.01 0.00 100 1014.2
20260902092029 77 324 0.0 0.0 0.00 0.01 0.00 100 1014.2
20260902091526 77 324 0.0 0.0 0.00 0.01 0.00 100 1014.2
20260902091022 77 324 0.0 0.0 0.00 0.01 0.00 100 1014.2
20260902090531 77 324 0.0 0.0 0.00 0.01 0.00 100 1014.2
20260902090026 77 324 0.0 0.0 0.00 0.01 0.00 100 1014.1
20260902085602 77 324 0.0 0.0 0.00 0.01 0.00 100 1014.1
20260902085030 77 324 0.0 0.0 0.00 0.01 0.00 100 1014.1
20260902084527 77 324 0.0 0.0 0.00 0.01 0.00 100 1013.8
20260902084035 77 324 0.0 0.0 0.00 0.01 0.00 100 1013.8
20260902083552 77 324 0.0 0.0 0.00 0.01 0.00 100 1013.8
20260902083027 77 324 0.0 0.0 0.00 0.01 0.00 100 1013.9
20260902082556 77 324 0.0 0.0 0.00 0.01 0.00 100 1013.9
20260902082032 77 324 0.0 0.0 0.00 0.01 0.00 100 1013.9
20260902081525 77 324 0.0 0.0 0.00 0.01 0.00 100 1013.8
20260902081034 77 324 0.0 0.0 0.00 0.01 0.00 100 1013.8
20260902080530 77 324 0.0 0.0 0.00 0.01 0.00 100 1013.8
20260902080022 77 324 0.0 0.0 0.00 0.01 0.00 100 1013.9
20260902075537 77 324 0.0 0.0 0.00 0.01 0.00 100 1013.9
20260902075032 77 324 0.0 0.0 0.00 0.01 0.00 100 1013.9
20260902074526 77 324 0.0 0.0 0.00 0.01 0.00 100 1013.9
20260902074031 77 324 0.0 0.0 0.00 0.01 0.00 100 1013.9
20260902073527 77 324 0.0 0.0 0.00 0.01 0.00 100 1013.9
20260902073023 77 324 0.0 0.0 0.00 0.01 0.00 100 1014.1
20260902072551 77 324 0.0 0.0 0.00 0.01 0.00 100 1014.1
20260902072027 77 307 0.0 0.0 0.00 0.01 0.00 100 1014.1
20260902071523 77 308 0.0 0.0 0.00 0.01 0.00 100 1014.1
20260902071031 77 308 0.0 0.0 0.00 0.01 0.00 100 1014.1
20260902070527 77 307 0.0 0.0 0.00 0.01 0.00 100 1014.1
20260902070035 77 307 0.0 0.0 0.00 0.01 0.00 100 1014.2
20260902065527 77 308 0.0 0.0 0.00 0.01 0.00 100 1014.2
20260902065036 77 307 0.0 0.0 0.00 0.01 0.00 100 1014.2
20260902064554 77 307 0.0 0.0 0.00 0.01 0.00 100 1014.2
20260902064029 77 308 0.0 0.0 0.00 0.01 0.00 100 1014.2
20260902063535 77 308 0.0 2.0 0.00 0.01 0.00 100 1014.2
20260902063051 77 308 0.0 2.0 0.00 0.01 0.00 100 1014.3
20260902062526 77 117 0.0 0.0 0.00 0.01 0.00 100 1014.3
20260902062056 77 117 0.0 0.0 0.00 0.01 0.00 100 1014.3
20260902061551 77 116 0.0 0.0 0.00 0.01 0.00 100 1014.3
20260902061025 77 116 0.0 1.0 0.00 0.01 0.00 100 1014.3
20260902060530 77 116 0.0 1.0 0.00 0.01 0.00 100 1014.3
20260902060025 77 116 0.0 0.0 0.00 0.01 0.00 100 1014.4
20260902055540 77 116 0.0 0.0 0.00 0.01 0.00 100 1014.4
20260902055030 77 116 0.0 0.0 0.00 0.01 0.00 100 1014.4
20260902054525 77 116 0.0 0.0 0.00 0.01 0.00 100 1014.4
20260902054051 77 116 0.0 0.0 0.00 0.01 0.00 100 1014.4
20260902053525 77 116 0.0 0.0 0.00 0.01 0.00 100 1014.4
20260902053022 77 116 0.0 0.0 0.00 0.01 0.00 100 1014.6
20260902052531 77 116 0.0 0.0 0.00 0.02 0.00 100 1014.6
20260902052028 78 116 0.0 0.0 0.00 0.02 0.00 100 1014.6
20260902051556 78 116 0.0 0.0 0.00 0.02 0.00 100 1014.6
20260902051032 78 116 0.0 0.0 0.00 0.02 0.00 100 1014.6
20260902050548 78 116 0.0 0.0 0.00 0.02 0.00 100 1014.6
20260902050036 78 116 0.0 0.0 0.00 0.02 0.00 100 1014.7
20260902045530 78 116 0.0 0.0 0.00 0.02 0.00 100 1014.7
20260902045026 78 116 0.0 0.0 0.00 0.02 0.00 100 1014.7
20260902044536 78 116 0.0 0.0 0.00 0.02 0.00 100 1014.7
20260902044053 78 116 0.0 0.0 0.00 0.02 0.00 100 1014.7
20260902043526 78 116 0.0 0.0 0.00 0.02 0.00 100 1014.7
20260902043051 78 116 0.0 0.0 0.00 0.02 0.00 100 1014.8
20260902042527 78 116 0.0 0.0 0.00 0.02 0.00 100 1014.8
20260902042023 78 116 0.0 0.0 0.00 0.02 0.00 100 1014.8
20260902041539 78 116 0.0 0.0 0.00 0.02 0.00 100 1014.8
20260902041034 78 116 0.0 0.0 0.00 0.02 0.00 100 1014.8
20260902040528 78 116 0.0 0.0 0.00 0.02 0.00 100 1014.8
20260902040022 78 116 0.0 0.0 0.00 0.02 0.02 100 1014.9
20260902035531 78 116 0.0 0.0 0.00 0.02 0.02 100 1014.9
20260902035027 79 116 0.0 0.0 0.00 0.02 0.02 100 1014.9
20260902034523 79 117 0.0 0.0 0.00 0.02 0.02 100 1015.0
20260902034032 79 116 0.0 0.0 0.00 0.02 0.02 100 1015.0
20260902033529 79 116 0.0 0.0 0.00 0.02 0.02 100 1015.0
20260902033026 79 116 0.0 0.0 0.00 0.02 0.02 99 1015.3
20260902032534 79 116 0.0 0.0 0.00 0.02 0.02 99 1015.3
20260902032028 79 116 0.0 0.0 0.00 0.02 0.02 99 1015.3
20260902031556 79 116 0.0 0.0 0.00 0.02 0.02 99 1015.3
20260902031031 79 116 0.0 0.0 0.00 0.02 0.02 99 1015.3
20260902030527 79 116 0.0 0.0 0.00 0.02 0.02 99 1015.3
20260902030026 79 116 0.0 0.0 0.00 0.02 0.02 98 1015.4
20260902025556 79 116 0.0 0.0 0.00 0.02 0.02 98 1015.4
20260902025030 79 116 0.0 0.0 0.00 0.02 0.02 98 1015.4
20260902024526 79 116 0.0 0.0 0.00 0.02 0.02 98 1015.5
20260902024034 79 116 0.0 0.0 0.00 0.02 0.02 97 1015.5
20260902023528 79 116 0.0 0.0 0.00 0.02 0.02 97 1015.5
20260902023022 79 116 0.0 0.0 0.00 0.02 0.02 96 1015.4
20260902022554 79 116 0.0 0.0 0.00 0.02 0.02 96 1015.4
20260902022022 79 116 0.0 0.0 0.00 0.02 0.02 96 1015.4
20260902021532 79 116 0.0 0.0 0.00 0.02 0.02 95 1015.3
20260902021048 79 116 0.0 0.0 0.00 0.02 0.02 94 1015.3
20260902020523 79 116 0.0 0.0 0.00 0.02 0.02 94 1015.3
20260902020031 79 116 0.0 0.0 0.00 0.02 0.02 93 1015.3
20260902015549 79 116 0.0 0.0 0.00 0.02 0.02 92 1015.3
20260902015035 79 116 0.0 0.0 0.00 0.02 0.02 92 1015.3
20260902014531 79 116 0.0 0.0 0.00 0.02 0.02 92 1015.1
20260902014028 79 116 0.0 0.0 0.00 0.02 0.02 91 1015.1
20260902013526 79 116 0.0 0.0 0.00 0.02 0.02 90 1015.1
20260902013055 79 116 0.0 0.0 0.00 0.02 0.02 90 1015.0
20260902012530 79 117 0.0 0.0 0.00 0.02 0.02 89 1015.0
20260902012027 79 117 0.0 0.0 0.00 0.02 0.02 88 1015.0
20260902011535 80 116 0.0 0.0 0.00 0.02 0.02 88 1014.8
20260902011031 80 117 0.0 0.0 0.00 0.02 0.02 87 1014.8
20260902010529 80 116 0.0 0.0 0.00 0.02 0.02 87 1014.8
20260902010035 80 117 0.0 0.0 0.00 0.02 0.02 87 1014.8
20260902005551 80 117 0.0 0.0 0.00 0.02 0.02 86 1014.8
20260902005026 80 116 0.0 1.0 0.00 0.02 0.02 86 1014.8
20260902004522 81 117 0.0 1.0 0.00 0.02 0.02 85 1015.0
20260902004034 81 117 0.0 1.0 0.00 0.02 0.02 85 1015.0
20260902003525 81 117 0.0 1.0 0.00 0.02 0.02 84 1015.0
20260902003033 81 117 0.0 2.0 0.00 0.02 0.02 83 1015.0
20260902002528 81 117 0.0 5.0 0.00 0.02 0.02 83 1015.0
20260902002023 81 117 2.0 5.0 0.00 0.02 0.02 82 1015.0
20260902001522 82 72 1.0 4.0 0.00 0.02 0.02 82 1015.0
20260902001033 82 89 2.0 4.0 0.00 0.02 0.02 81 1015.0
20260902000528 82 103 0.0 3.0 0.00 0.02 0.02 81 1015.0
20260902000023 82 44 0.0 6.0 0.00 0.02 0.02 81 1014.9
20260901235531 82 63 3.0 6.0 0.00 0.02 0.02 83 1014.9
20260901235025 82 49 0.0 2.0 0.00 0.02 0.02 84 1014.9
20260901234533 82 49 0.0 2.0 0.00 0.02 0.02 83 1014.8
20260901234027 82 49 0.0 4.0 0.00 0.02 0.02 83 1014.8
20260901233526 82 41 0.0 2.0 0.00 0.02 0.02 83 1014.8
20260901233023 83 42 1.0 2.0 0.00 0.02 0.02 82 1014.8
20260901232531 83 2 0.0 3.0 0.00 0.02 0.02 83 1014.8
20260901232027 83 29 1.0 3.0 0.00 0.02 0.02 84 1014.8
20260901231523 83 26 1.0 3.0 0.00 0.02 0.02 83 1014.6
20260901231037 83 31 0.0 3.0 0.00 0.02 0.02 83 1014.6
20260901230553 83 2 1.0 4.0 0.00 0.02 0.02 83 1014.6
20260901230027 83 37 1.0 4.0 0.00 0.02 0.02 83 1014.6
20260901225534 83 27 1.0 2.0 0.00 0.02 0.02 83 1014.6
20260901225031 83 22 1.0 2.0 0.00 0.02 0.02 82 1014.6
20260901224526 83 30 2.0 5.0 0.00 0.02 0.02 82 1014.5
20260901224036 83 23 1.0 5.0 0.00 0.02 0.02 81 1014.5
20260901223531 83 58 1.0 3.0 0.00 0.02 0.02 81 1014.5
20260901223026 83 22 1.0 4.0 0.00 0.02 0.02 81 1014.5
20260901222522 83 41 1.0 4.0 0.00 0.02 0.02 80 1014.5
20260901222037 84 354 1.0 4.0 0.00 0.02 0.02 80 1014.5
20260901221534 84 34 2.0 4.0 0.00 0.02 0.02 79 1014.4
20260901221029 84 354 1.0 4.0 0.00 0.02 0.02 79 1014.4
20260901220536 84 68 2.0 7.0 0.00 0.02 0.02 79 1014.4
20260901220049 84 19 3.0 7.0 0.00 0.02 0.02 79 1014.2
20260901215524 84 49 2.0 5.0 0.00 0.02 0.02 79 1014.2
20260901215054 84 28 2.0 5.0 0.00 0.02 0.02 79 1014.2
20260901214528 84 32 2.0 9.0 0.00 0.02 0.02 79 1014.0
20260901214024 84 41 3.0 11.0 0.00 0.02 0.02 79 1014.0
20260901213534 85 42 2.0 10.0 0.00 0.02 0.02 78 1014.0
20260901213029 85 45 2.0 13.0 0.00 0.02 0.02 78 1013.9
20260901212522 85 18 2.0 13.0 0.00 0.02 0.02 77 1013.9
20260901212030 85 45 3.0 7.0 0.00 0.02 0.02 76 1013.9
20260901211526 85 360 2.0 6.0 0.00 0.02 0.02 75 1014.3
20260901211040 86 57 3.0 6.0 0.00 0.02 0.02 74 1014.3
20260901210531 86 32 2.0 6.0 0.00 0.02 0.02 72 1014.3
20260901210025 87 48 3.0 6.0 0.00 0.02 0.02 71 1014.2
20260901205535 87 1 3.0 6.0 0.00 0.02 0.02 67 1014.2
20260901205030 88 47 4.0 10.0 0.00 0.02 0.02 70 1014.2
20260901204527 88 33 3.0 10.0 0.00 0.02 0.02 69 1014.3
20260901204036 88 20 4.0 9.0 0.00 0.02 0.02 68 1014.3
20260901203533 88 24 3.0 9.0 0.00 0.02 0.02 68 1014.3
20260901203029 88 20 4.0 9.0 0.00 0.02 0.02 70 1014.3
20260901202525 87 359 1.0 6.0 0.00 0.02 0.02 72 1014.3
20260901202100 87 33 2.0 6.0 0.00 0.02 0.02 71 1014.3
20260901201532 87 39 2.0 6.0 0.00 0.02 0.02 71 1014.7
20260901201047 88 51 3.0 6.0 0.00 0.02 0.02 71 1014.7
20260901200530 88 25 2.0 7.0 0.00 0.02 0.02 70 1014.7
20260901200046 88 46 2.0 8.0 0.00 0.02 0.02 69 1014.7
20260901195524 88 50 2.0 8.0 0.00 0.02 0.02 68 1014.7
20260901195033 89 58 2.0 6.0 0.00 0.02 0.02 68 1014.7
20260901194529 89 60 2.0 6.0 0.00 0.02 0.02 68 1014.7
20260901194025 90 36 2.0 7.0 0.00 0.02 0.02 67 1014.7
20260901193521 90 49 2.0 7.0 0.00 0.02 0.02 68 1014.7
20260901193050 89 37 1.0 6.0 0.00 0.02 0.02 68 1014.7
20260901192526 89 30 1.0 7.0 0.00 0.02 0.02 67 1014.7
20260901192023 89 25 2.0 7.0 0.00 0.02 0.02 68 1014.7
20260901191530 90 21 3.0 6.0 0.00 0.02 0.02 66 1014.8
20260901191027 90 47 3.0 5.0 0.00 0.02 0.02 66 1014.8
20260901190523 90 52 2.0 6.0 0.00 0.02 0.02 66 1014.8
20260901190035 90 4 1.0 9.0 0.00 0.02 0.02 67 1014.9
20260901185533 90 32 3.0 9.0 0.00 0.02 0.02 66 1014.9
20260901185029 90 38 4.0 7.0 0.00 0.02 0.02 66 1014.9
20260901184558 90 54 2.0 8.0 0.00 0.02 0.02 66 1015.3
20260901184034 90 63 2.0 8.0 0.00 0.02 0.02 65 1015.3
20260901183527 91 1 2.0 11.0 0.00 0.02 0.02 67 1015.3
20260901183036 91 12 3.0 9.0 0.00 0.02 0.02 67 1015.3
20260901182553 90 25 2.0 10.0 0.00 0.02 0.02 68 1015.3
20260901182049 91 360 3.0 10.0 0.00 0.02 0.02 67 1015.3
20260901181551 90 352 2.0 7.0 0.00 0.02 0.02 68 1015.3
20260901181026 90 30 1.0 7.0 0.00 0.02 0.02 69 1015.3
20260901180543 90 46 3.0 11.0 0.00 0.02 0.02 69 1015.3
20260901180051 90 27 4.0 12.0 0.00 0.02 0.02 70 1015.6
20260901175548 90 1 2.0 12.0 0.00 0.02 0.02 69 1015.6
20260901175034 90 22 3.0 7.0 0.00 0.02 0.02 70 1015.6
20260901174531 89 41 3.0 10.0 0.00 0.02 0.02 71 1015.9
20260901174027 89 16 3.0 11.0 0.00 0.02 0.02 72 1015.9
20260901173536 89 35 3.0 11.0 0.00 0.02 0.02 71 1015.9
20260901173032 89 26 2.0 8.0 0.00 0.02 0.02 70 1015.9
20260901172548 89 23 1.0 6.0 0.00 0.02 0.02 71 1015.9
20260901172056 89 30 2.0 7.0 0.00 0.02 0.02 74 1015.9
20260901171531 88 49 3.0 7.0 0.00 0.02 0.02 73 1015.9
20260901171027 88 32 1.0 6.0 0.00 0.02 0.02 73 1015.9
20260901170555 88 36 2.0 7.0 0.00 0.02 0.02 74 1015.9
20260901170031 88 30 2.0 6.0 0.00 0.02 0.02 76 1016.2
20260901165542 88 21 2.0 6.0 0.00 0.02 0.02 75 1016.2